Orbital Elements at Epoch 2459200.5 (2020-Dec-17.0) TDB
Reference: JPL 5 (heliocentric ecliptic J2000)
Element | Value | Uncertainty (1-sigma) | Units |
e | .2522489242061892 | 1.4644e-07 | |
a | 2.579191791811366 | 3.2022e-08 | au |
q | 1.928593437005515 | 3.7752e-07 | au |
i | 3.158092532152536 | 8.4357e-06 | deg |
node | 54.10839432295284 | 0.0002062 | deg |
peri | 307.1344847724402 | 0.00021002 | deg |
M | 148.1804211408829 | 5.2556e-05 | deg |
tp | 2458577.752191560930 (2019-Apr-04.25219156) | 0.00021099 | TDB |
period | 1512.947589917541 4.14 | 2.8176e-05 7.714e-08 | d yr |
n | .2379461141939627 | 4.4313e-09 | deg/d |
Q | 3.229790146617216 | 4.0099e-08 | au |
|
| | Orbit Determination Parameters
Additional Information
|